Location: Lane
(33.5226°N, 79.8788°W)
Time: 07:51:02
(UTC+00:00)

SR - Pass Details

Date: 30 September 2022
Orbit: 577 x 875 km, 66.7° (Epoch: 27 November)

Event Time Altitude Azimuth Distance (km) Brightness Sun altitude
Rises 04:03:46 0° 254° (WSW) 3,425 - -55.6°
Reaches altitude 10° 04:07:22 10° 277° (W) 2,515 - -56.0°
Maximum altitude 04:10:41 15° 311° (NW) 2,170 - -56.3°
Drops below altitude 10° 04:14:01 10° 346° (NNW) 2,526 - -56.6°
Sets 04:17:40 0° 9° (N) 3,448 - -56.9°
